Aérodrome :
LOGIN :

S'inscrire | Disclaimer

   EN    FR    IT 

 










Légende :    VFR   VFR Marginal   IFR   IFR Intensif   IFR Très Intensif
Visi : 
Plafond : 
>= 8 km
>= 3000ft
5 à 8 km
1000 à 3000 ft
1500m à 5 km
500 à 1000 ft
800 à 1500m
200 à 500 ft
< 800m
< 200 ft
Symboles :   Orages  Brouillard  Fortes neiges  Fortes précipitations  Vent > 20 kt
SIGMETs :   Divers  Orages  Givrage  Turbulence  Onde Orograph.  Cendres Volcan.







- Altitude de l'aérodrome : 13 ft
- Code IATA : LYX
- Voir les cartes d'approche


EGMD - Lydd

DERNIER METAR :
  • 191050Z 16012KT 9999 -RA NSC 17/15 Q1005

METARs EXPIRÉS :
  • 191020Z 15013KT CAVOK 16/14 Q1005
  • 190950Z 15016KT CAVOK 16/14 Q1005
  • 190920Z 15013KT CAVOK 16/14 Q1006
  • 190850Z 14010KT CAVOK 16/14 Q1006
  • 190820Z 14012KT CAVOK 16/14 Q1006

TAF TAF EGMD
Valide du 19 à 09h jusqu'au 19 à 18h UTC


190801Z 1909/1918 12009KT 9999 FEW025
BECMG 1909/1912 18015KT
TEMPO 1912/1918 6000 -RADZ BKN014
ATIS : +44 1797 322 422
Pas de NOTAMs connus pour ce terrain.



MET'MAP, la Météo Aéronautique d'un coup d'oeil ! - Copyright ORBIFLY Décembre 2007 - Disclaimer

ORBIFLY MET'MAP TEAM :

Programmation & Développement : Alexandra Zaïnal
Conception & Développement : Baudouin d'Aumeries
Co-Programmation & Développement : Marc-Olivier Méhu
Soutien technique & logistique : Manuel Goepfert

Contact : metmap@orbifly.com




SOURCES & CREDITS :

   NOAA